Flag for U.S.A. Weather past 2 weeks in Green Bay, Wisconsin, U.S.A.

Now
33 °F

Clear.


Feels Like: 26 °F
Forecast: 31 / 55 °F
Wind: 8 mph from North

Location: Austin Straubel International Airport

Current Time: Apr 26, 2015 at 5:04:14 AM

Latest Report: Apr 26, 2015 at 3:53 AM


Visibility: 10 mi

Pressure: 30.03 "Hg

Humidity: 63%

Dew point: 22 °F

Location of Green BayLocation

Historic Weather in Green Bay — Graph

°F

Green Bay temperature yesterday

Maximum temperature yesterday: 49 °F (at 2:53 PM)
Minimum temperature yesterday: 40 °F (at 12:53 AM)
Average temperature yesterday: 44 °F

Past Weeks' High & Low Weather Summary

 TemperatureHumidityPressure
High72 °F (Apr 17, 1:53 PM)96% (Apr 11, 6:53 AM)30.39 "Hg (Apr 11, 6:53 AM)
Low30 °F (Apr 24, 3:53 AM)19% (Apr 15, 2:53 PM)29.18 "Hg (Apr 20, 5:53 AM)
Average48 °F57%29.94 "Hg
* Reported Apr 11 3:53 AM — Apr 26 3:53 AM, Green Bay, Weather by CustomWeather, © 2015

Note: Actual official high and low records may vary slightly from our data, if they occured in-between our weather recording intervals... More about our weather records

Advertising

Green Bay weather history for previous 24 hours

 ConditionsComfort  
Time TempWeatherWind HumidityBarometerVisibility
3:53 AM
Sun, Apr 26
33 °FClear.8 mph63%30.03 "Hg10 mi
2:53 AM35 °FClear.10 mph61%30.01 "Hg10 mi
1:53 AM36 °FClear.10 mph59%29.99 "Hg10 mi
12:53 AM40 °FClear.10 mph58%29.98 "Hg10 mi
11:53 PM
Sat, Apr 25
42 °FClear.13 mph60%29.97 "Hg10 mi
10:53 PM43 °FClear.16 mph58%29.96 "Hg10 mi
9:53 PM42 °FClear.10 mph57%29.96 "Hg10 mi
8:53 PM43 °FClear.10 mph47%29.94 "Hg10 mi
7:53 PM44 °FSunny.10 mph35%29.92 "Hg10 mi
6:53 PM46 °FSunny.14 mph29%29.91 "Hg10 mi
5:53 PM47 °FScattered clouds.13 mph30%29.92 "Hg10 mi
4:53 PM48 °FPartly sunny.16 mph37%29.92 "Hg10 mi
3:53 PM48 °FPassing clouds.17 mph34%29.90 "Hg10 mi
2:53 PM49 °FPartly sunny.21 mph38%29.90 "Hg10 mi
1:53 PM47 °FScattered clouds.20 mph34%29.91 "Hg10 mi
12:53 PM47 °FOvercast.22 mph36%29.92 "Hg10 mi
11:53 AM48 °FOvercast.18 mph44%29.94 "Hg10 mi
10:53 AM47 °FPartly sunny.18 mph39%29.94 "Hg10 mi
9:53 AM46 °FOvercast.20 mph44%29.95 "Hg10 mi
8:53 AM43 °FOvercast.15 mph51%29.96 "Hg10 mi
7:53 AM41 °FOvercast.12 mph55%29.96 "Hg10 mi
6:53 AM40 °FOvercast.10 mph55%29.96 "Hg10 mi
5:53 AM40 °FOvercast.8 mph55%29.94 "Hg10 mi
Weather by CustomWeather, © 2015

See weather overviewHow to use our weather pages